Precipitable_Water
1.34 1.30 1.27 1.33 1.42 1.50 1.55 1.53 1.55 1.55 1.51 1.45 1.46 1.48 1.45 1.49 1.47 1.49 1.49 1.50 1.53 1.49 1.45 1.38 1.32 1.26 1.24 1.27 1.28 1.22 1.21 1.19 1.20 1.21 1.13 1.13 1.13 1.08 1.07 1.05 1.07 1.09
1.32 1.35 1.38 1.41 1.45 1.52 1.57 1.61 1.62 1.60 1.58 1.54 1.53 1.56 1.65 1.64 1.60 1.54 1.53 1.49 1.49 1.48 1.46 1.46 1.44 1.38 1.34 1.34 1.33 1.26 1.25 1.20 1.20 1.25 1.22 1.21 1.20 1.18 1.14 1.12 1.12 1.16
1.33 1.36 1.39 1.40 1.43 1.43 1.49 1.61 1.63 1.64 1.64 1.61 1.60 1.64 1.67 1.72 1.68 1.61 1.57 1.54 1.50 1.48 1.49 1.46 1.45 1.40 1.37 1.37 1.39 1.33 1.27 1.28 1.24 1.29 1.28 1.23 1.25 1.24 1.23 1.19 1.17 1.15
1.31 1.36 1.39 1.42 1.47 1.43 1.45 1.53 1.59 1.64 1.69 1.64 1.61 1.67 1.69 1.74 1.76 1.69 1.60 1.54 1.51 1.51 1.51 1.49 1.45 1.45 1.43 1.38 1.39 1.39 1.38 1.37 1.36 1.31 1.26 1.26 1.26 1.26 1.26 1.24 1.18 1.15
1.30 1.35 1.40 1.43 1.44 1.41 1.46 1.45 1.48 1.58 1.63 1.65 1.70 1.72 1.75 1.73 1.68 1.58 1.50 1.47 1.46 1.45 1.42 1.45 1.48 1.47 1.49 1.43 1.37 1.37 1.41 1.40 1.40 1.37 1.28 1.22 1.24 1.24 1.27 1.25 1.21 1.15
1.32 1.37 1.42 1.41 1.39 1.41 1.43 1.48 1.53 1.58 1.64 1.62 1.69 1.74 1.75 1.73 1.68 1.62 1.51 1.47 1.45 1.42 1.36 1.41 1.47 1.46 1.50 1.50 1.44 1.39 1.38 1.40 1.44 1.42 1.33 1.24 1.21 1.23 1.27 1.27 1.22 1.16
1.28 1.35 1.39 1.41 1.39 1.43 1.45 1.50 1.58 1.65 1.64 1.63 1.73 1.71 1.71 1.65 1.65 1.61 1.50 1.44 1.46 1.40 1.40 1.40 1.45 1.44 1.49 1.54 1.51 1.45 1.42 1.45 1.45 1.42 1.36 1.33 1.27 1.22 1.22 1.23 1.22 1.20
1.26 1.35 1.39 1.40 1.37 1.43 1.47 1.53 1.58 1.65 1.65 1.61 1.64 1.67 1.70 1.60 1.54 1.50 1.46 1.43 1.40 1.40 1.33 1.37 1.40 1.43 1.45 1.45 1.42 1.37 1.41 1.49 1.41 1.35 1.35 1.35 1.30 1.23 1.22 1.23 1.24 1.22
1.25 1.35 1.38 1.37 1.36 1.41 1.45 1.49 1.58 1.69 1.68 1.64 1.68 1.68 1.66 1.55 1.46 1.41 1.43 1.43 1.39 1.36 1.32 1.36 1.42 1.41 1.42 1.42 1.41 1.32 1.29 1.37 1.38 1.34 1.34 1.32 1.25 1.22 1.20 1.25 1.26 1.23
1.24 1.32 1.35 1.36 1.36 1.42 1.43 1.48 1.57 1.70 1.67 1.66 1.69 1.66 1.55 1.47 1.41 1.38 1.35 1.32 1.32 1.31 1.29 1.34 1.35 1.40 1.42 1.37 1.37 1.33 1.29 1.27 1.32 1.36 1.37 1.32 1.25 1.22 1.26 1.31 1.30 1.27
1.29 1.32 1.34 1.37 1.40 1.42 1.46 1.54 1.57 1.61 1.60 1.57 1.52 1.43 1.43 1.38 1.36 1.37 1.33 1.29 1.28 1.29 1.29 1.29 1.27 1.27 1.29 1.29 1.30 1.33 1.32 1.32 1.32 1.37 1.37 1.33 1.29 1.24 1.25 1.28 1.32 1.30
1.31 1.34 1.37 1.39 1.33 1.32 1.42 1.47 1.49 1.48 1.48 1.49 1.44 1.37 1.39 1.42 1.40 1.37 1.35 1.30 1.27 1.28 1.30 1.29 1.25 1.20 1.26 1.27 1.24 1.26 1.29 1.35 1.36 1.34 1.31 1.27 1.23 1.21 1.23 1.31 1.32 1.32
1.39 1.39 1.43 1.42 1.31 1.26 1.32 1.36 1.38 1.39 1.42 1.48 1.45 1.45 1.47 1.43 1.42 1.37 1.31 1.24 1.24 1.27 1.29 1.27 1.20 1.20 1.27 1.30 1.29 1.24 1.28 1.30 1.34 1.35 1.30 1.25 1.21 1.19 1.20 1.26 1.34 1.38
1.50 1.49 1.49 1.48 1.44 1.39 1.35 1.31 1.29 1.30 1.41 1.53 1.50 1.44 1.44 1.42 1.42 1.39 1.36 1.29 1.25 1.27 1.32 1.29 1.23 1.24 1.27 1.30 1.30 1.27 1.30 1.34 1.33 1.32 1.31 1.25 1.16 1.17 1.18 1.21 1.29 1.38
1.64 1.64 1.62 1.58 1.55 1.53 1.49 1.46 1.47 1.46 1.50 1.49 1.44 1.43 1.43 1.40 1.42 1.44 1.40 1.35 1.31 1.30 1.32 1.31 1.27 1.26 1.28 1.26 1.18 1.23 1.29 1.35 1.39 1.35 1.29 1.18 1.13 1.14 1.19 1.25 1.27 1.31
1.71 1.71 1.68 1.66 1.60 1.56 1.57 1.59 1.59 1.60 1.59 1.59 1.60 1.59 1.53 1.48 1.49 1.53 1.48 1.42 1.36 1.34 1.32 1.29 1.27 1.31 1.29 1.21 1.21 1.23 1.26 1.32 1.36 1.36 1.29 1.24 1.19 1.15 1.18 1.23 1.29 1.37
1.70 1.69 1.67 1.61 1.61 1.61 1.66 1.68 1.68 1.71 1.74 1.75 1.73 1.65 1.59 1.59 1.59 1.56 1.53 1.51 1.44 1.37 1.32 1.29 1.29 1.35 1.27 1.23 1.23 1.18 1.22 1.25 1.34 1.37 1.34 1.33 1.27 1.23 1.22 1.27 1.34 1.43
1.69 1.65 1.58 1.62 1.64 1.62 1.63 1.66 1.72 1.75 1.70 1.62 1.59 1.59 1.62 1.65 1.61 1.59 1.59 1.58 1.57 1.53 1.47 1.40 1.35 1.35 1.33 1.29 1.26 1.19 1.23 1.34 1.38 1.40 1.42 1.39 1.32 1.29 1.25 1.27 1.30 1.35
1.67 1.64 1.60 1.60 1.61 1.64 1.66 1.70 1.68 1.58 1.53 1.52 1.54 1.61 1.62 1.58 1.59 1.58 1.58 1.61 1.61 1.59 1.57 1.55 1.45 1.44 1.44 1.38 1.30 1.24 1.30 1.36 1.37 1.40 1.40 1.33 1.30 1.23 1.21 1.24 1.30 1.32
1.64 1.61 1.60 1.60 1.63 1.66 1.66 1.59 1.48 1.46 1.51 1.54 1.57 1.59 1.57 1.55 1.54 1.53 1.56 1.57 1.59 1.58 1.55 1.53 1.54 1.54 1.58 1.48 1.35 1.32 1.33 1.33 1.40 1.41 1.36 1.38 1.33 1.25 1.24 1.27 1.32 1.36
1.61 1.61 1.58 1.61 1.63 1.58 1.53 1.46 1.46 1.49 1.52 1.56 1.55 1.53 1.51 1.47 1.46 1.47 1.51 1.54 1.55 1.58 1.54 1.46 1.55 1.64 1.58 1.47 1.39 1.36 1.35 1.38 1.44 1.40 1.39 1.38 1.31 1.23 1.21 1.25 1.30 1.36
1.61 1.61 1.58 1.55 1.48 1.43 1.40 1.42 1.45 1.47 1.48 1.54 1.53 1.52 1.52 1.50 1.49 1.52 1.52 1.54 1.60 1.58 1.48 1.48 1.56 1.67 1.59 1.50 1.41 1.37 1.39 1.40 1.42 1.35 1.32 1.30 1.27 1.24 1.26 1.32 1.36 1.40
1.63 1.56 1.48 1.41 1.38 1.36 1.36 1.39 1.41 1.43 1.48 1.52 1.47 1.46 1.46 1.45 1.44 1.49 1.55 1.57 1.57 1.54 1.50 1.51 1.60 1.65 1.56 1.44 1.36 1.32 1.32 1.36 1.35 1.31 1.28 1.26 1.25 1.26 1.30 1.32 1.37 1.43
1.53 1.45 1.38 1.37 1.37 1.36 1.38 1.41 1.43 1.44 1.43 1.48 1.43 1.43 1.43 1.48 1.55 1.55 1.57 1.57 1.54 1.50 1.52 1.53 1.59 1.62 1.54 1.43 1.34 1.32 1.32 1.32 1.30 1.25 1.24 1.24 1.23 1.24 1.25 1.26 1.31 1.40
1.44 1.42 1.41 1.41 1.45 1.46 1.45 1.41 1.39 1.39 1.44 1.50 1.49 1.49 1.49 1.55 1.57 1.58 1.58 1.61 1.60 1.56 1.53 1.51 1.54 1.51 1.44 1.36 1.32 1.32 1.33 1.32 1.29 1.25 1.20 1.18 1.14 1.14 1.19 1.21 1.25 1.32
1.42 1.44 1.49 1.52 1.52 1.54 1.53 1.50 1.49 1.48 1.51 1.52 1.53 1.51 1.49 1.48 1.50 1.52 1.52 1.54 1.53 1.48 1.46 1.45 1.44 1.43 1.39 1.33 1.29 1.31 1.34 1.37 1.33 1.23 1.14 1.11 1.11 1.10 1.11 1.20 1.27 1.34
Wind_Speed
15 14 14 13 13 13 12 11 11 11 10 10 10 9 9 9 9 10 10 11 11 11 12 12 12 12 13 13 14 14 14 14 14 15 15 15 16 16 16 16 16 16
16 15 14 14 14 13 13 12 12 12 11 11 11 11 10 11 11 11 12 12 13 13 13 13 13 14 14 15 15 15 15 15 16 16 16 17 17 17 17 17 17 17
16 16 15 15 14 14 14 13 13 13 13 13 13 13 12 12 12 12 13 13 14 14 14 14 15 15 16 16 16 17 17 17 17 18 17 18 18 18 18 18 18 18
17 17 16 16 15 14 14 15 15 14 14 14 14 14 13 13 13 13 14 14 15 15 16 17 17 17 17 17 18 18 18 19 19 19 19 19 19 19 19 19 19 19
18 17 17 17 16 16 15 15 16 16 16 15 15 14 15 15 15 15 15 16 17 17 18 19 20 19 20 20 20 20 20 20 21 20 20 20 20 20 19 19 20 20
18 18 18 18 17 17 17 16 17 17 17 17 16 16 16 16 17 17 17 18 19 20 21 21 21 22 22 21 22 22 23 22 22 22 22 22 21 21 21 20 20 20
19 19 19 19 18 18 18 17 17 18 18 18 17 17 18 18 19 19 20 20 21 22 23 22 22 23 22 22 22 23 23 23 23 23 23 23 22 22 22 22 21 21
20 20 20 20 19 19 19 18 18 19 19 18 19 19 20 20 21 22 22 23 23 24 24 24 24 23 23 23 23 24 23 22 23 23 23 23 23 23 23 23 23 22
21 21 21 21 20 20 19 19 19 20 20 20 20 21 22 23 24 24 24 25 25 25 24 25 25 24 24 24 24 23 22 22 23 23 23 24 24 24 24 24 24 23
22 22 21 21 21 20 20 20 20 20 21 21 21 22 23 24 24 24 25 25 24 23 23 23 23 24 24 24 24 24 23 23 23 24 24 24 24 24 24 24 24 24
22 22 22 21 21 21 21 22 21 21 21 22 22 22 23 23 23 23 24 24 24 24 24 23 23 24 25 25 24 25 24 24 23 23 23 23 24 24 24 25 24 24
22 22 22 22 21 21 21 21 21 21 21 22 22 23 23 23 24 24 24 25 26 26 26 25 25 25 25 26 26 25 24 24 24 24 24 24 24 24 25 25 24 24
23 22 22 22 22 22 21 21 22 22 22 23 23 24 25 25 26 26 26 27 27 28 28 27 26 26 26 26 26 26 25 24 24 24 24 24 24 24 25 26 26 25
22 22 22 22 22 22 22 22 23 23 24 24 25 26 27 27 27 27 27 28 28 29 29 29 28 28 27 27 27 26 25 24 24 24 24 24 24 24 26 27 27 26
21 21 21 21 21 22 22 22 23 24 25 26 27 28 28 28 28 27 28 29 29 29 29 30 30 29 28 28 27 26 25 25 25 25 25 24 25 25 26 27 28 27
20 20 20 21 21 22 22 22 23 24 25 26 27 27 27 27 28 28 29 29 29 29 29 30 30 29 28 28 27 26 26 26 25 25 26 26 27 27 26 27 27 27
20 20 20 20 21 22 22 22 23 24 25 26 26 26 26 27 28 29 30 29 29 29 29 30 29 28 28 28 27 27 27 27 26 26 27 27 27 27 26 26 26 26
20 20 20 20 21 21 22 22 22 23 24 24 24 25 26 27 29 29 30 29 28 28 29 29 29 28 28 28 27 27 27 27 26 26 27 27 28 27 26 26 26 25
20 20 20 20 20 21 21 21 22 22 22 22 23 24 25 27 29 29 29 28 28 28 28 28 27 27 27 27 27 27 27 27 27 27 28 29 29 27 26 26 25 24
20 20 20 20 20 20 20 21 22 22 22 23 24 25 26 27 28 28 28 28 28 27 27 27 26 26 27 27 27 26 27 27 28 28 29 30 29 27 26 26 25 24
20 21 21 21 20 20 20 21 22 22 23 24 24 25 26 26 26 27 27 28 27 27 26 26 25 25 25 25 26 26 27 27 28 29 29 29 28 26 26 27 26 25
21 21 21 21 20 20 21 21 22 23 23 24 24 25 26 26 26 26 27 28 27 26 26 25 24 24 24 24 25 26 27 27 28 28 27 27 26 26 27 26 25 25
22 22 21 21 21 21 21 22 23 23 23 24 25 26 26 27 27 28 28 27 26 25 25 24 23 23 23 23 24 25 25 26 27 27 28 27 26 26 26 26 25 25
22 22 22 21 21 21 22 23 23 23 24 24 25 26 27 28 29 29 29 27 25 24 24 22 22 23 24 24 24 23 23 25 26 27 28 27 26 26 26 25 25 25
22 22 22 22 22 23 23 23 24 24 24 25 26 27 28 30 30 29 27 24 23 23 23 22 22 23 23 23 23 23 24 25 26 26 26 25 24 24 24 24 25 26
22 22 22 22 23 24 24 25 25 25 26 26 27 28 29 30 29 26 24 22 21 22 21 21 21 21 22 22 22 23 24 25 25 24 23 23 23 23 23 24 25 26
Wind_Direction
228 229 230 231 234 237 239 241 243 244 245 248 252 255 258 260 264 267 269 272 276 279 280 281 283 284 287 288 288 288 289 289 288 289 289 289 290 289 286 283 281 280
226 228 229 231 234 237 240 242 244 245 248 250 254 258 261 262 265 267 269 272 275 277 278 279 281 283 286 288 288 288 288 287 287 288 288 287 289 289 286 283 281 280
226 228 230 231 234 237 240 244 246 248 250 253 255 259 263 265 266 268 270 273 275 275 277 279 280 282 285 287 287 286 286 286 286 286 286 285 286 287 286 283 281 280
226 229 231 233 236 240 243 245 247 250 253 255 257 260 263 265 267 269 272 274 275 277 279 281 280 280 283 285 286 284 284 285 287 287 285 284 283 284 284 283 281 281
228 230 233 235 239 243 245 246 249 252 253 256 258 261 264 266 268 272 274 275 277 280 282 282 281 280 281 283 285 284 283 284 286 286 284 282 282 282 283 282 281 281
229 232 235 238 241 244 246 248 251 252 254 256 258 261 265 266 270 274 276 277 280 283 284 282 281 280 281 282 285 285 283 281 282 284 283 281 280 280 280 281 282 281
231 233 236 240 242 245 247 249 252 253 255 257 258 263 266 267 271 275 277 280 282 284 283 283 283 282 281 281 285 287 283 278 280 283 283 281 279 278 278 279 281 281
233 235 238 241 244 247 248 250 253 255 257 259 260 264 267 270 273 276 278 281 283 283 282 281 281 281 281 281 284 287 284 279 279 282 282 281 280 278 278 278 279 280
234 236 239 242 244 247 248 251 254 257 258 259 263 266 270 274 276 276 278 281 283 284 283 281 279 278 280 282 283 285 285 281 280 281 281 280 279 278 277 278 278 278
234 237 239 242 244 247 250 252 256 259 259 260 265 269 273 277 277 276 278 281 282 282 283 283 280 279 281 282 282 283 284 283 282 282 281 280 279 278 278 278 278 277
233 236 239 241 244 248 252 254 256 260 262 264 266 270 273 277 277 277 278 280 281 281 282 283 283 281 281 281 281 282 283 282 282 283 283 282 281 280 279 278 276 277
233 236 239 241 244 248 252 253 255 259 263 266 268 270 273 276 277 278 279 279 281 281 281 282 282 282 281 280 280 280 281 281 282 283 284 284 283 281 281 279 275 277
234 237 240 243 246 249 252 254 256 260 264 268 270 271 274 276 277 278 279 280 281 281 281 280 280 280 279 278 278 278 278 280 282 283 285 285 285 284 284 280 275 275
235 239 242 245 247 250 253 256 259 262 266 269 272 273 274 276 277 278 279 281 282 281 280 279 278 278 276 275 275 275 276 279 280 282 284 285 286 288 288 284 275 271
236 240 243 245 248 252 256 259 262 264 267 270 272 274 276 276 277 278 279 280 280 279 278 277 277 276 274 273 272 272 275 278 280 281 281 283 285 288 291 288 277 269
236 240 243 247 250 254 258 262 264 267 270 272 274 275 277 277 278 280 280 279 278 278 276 275 274 273 271 270 270 271 274 277 278 279 280 282 285 286 288 289 280 269
237 241 244 248 253 256 261 265 267 270 273 275 277 278 279 280 281 282 282 280 279 278 275 273 272 271 270 269 269 270 274 276 276 277 279 283 286 285 287 289 283 271
239 242 245 250 255 259 264 267 269 272 275 277 279 281 282 283 284 284 283 282 281 279 275 272 270 269 268 268 268 269 273 276 276 276 280 284 286 286 286 289 285 274
241 244 247 253 259 263 266 269 270 273 277 279 282 284 286 287 287 285 284 283 282 280 275 272 270 268 267 267 266 268 272 275 276 276 279 283 285 284 285 288 284 275
242 245 249 255 260 265 268 269 271 273 277 281 284 287 289 291 289 288 287 284 282 280 276 273 270 267 265 265 264 267 271 274 276 278 279 282 283 283 284 285 281 276
242 246 251 256 261 266 269 271 272 275 278 282 286 289 292 293 292 291 289 286 283 280 276 273 271 267 265 264 264 267 271 275 278 280 281 282 282 281 282 282 279 277
243 247 252 257 262 266 270 272 274 277 280 284 288 291 294 295 295 294 291 287 283 280 276 273 270 266 265 265 265 267 272 275 278 279 280 281 280 280 281 280 278 277
245 249 253 258 262 265 269 273 276 279 282 285 289 292 294 295 295 296 294 288 281 278 275 272 270 266 265 266 266 268 272 275 277 279 280 280 280 280 279 278 278 277
247 251 255 258 262 266 269 273 276 279 282 285 289 292 295 296 297 297 294 286 279 275 273 271 270 269 267 267 267 268 272 277 280 281 281 280 280 279 278 277 277 277
249 252 255 258 262 266 270 274 277 280 282 286 290 294 297 298 298 296 291 283 277 275 271 269 270 269 267 266 267 268 273 279 281 280 279 279 279 279 278 277 276 277
250 252 255 260 264 268 272 275 278 281 283 287 292 295 297 299 298 295 289 282 278 275 270 269 269 267 264 265 267 270 274 278 279 279 279 279 279 278 278 277 277 278